Change the Weather History Date:

Wednesday, October 9, 2013

  Actual Average (KSTC) Record (KSTC)
Temperature  
Mean Temperature 66 °F 49 °F  
Max Temperature 75 °F 60 °F 84 °F (1938)
Min Temperature 57 °F 37 °F 16 °F (2000)
Degree Days  
Heating Degree Days 0 17  
Month to date heating degree days 135  
Since 1 July heating degree days 421  
Cooling Degree Days 1 0  
Month to date cooling degree days 0  
Year to date cooling degree days 463  
Growing Degree Days 16 (Base 50)    
Moisture  
Dew Point 47 °F    
Average Humidity 55    
Maximum Humidity 68    
Minimum Humidity 38    
Precipitation  
Precipitation 0.00 in 0.09 in 2.21 in (1904)
Month to date precipitation 0.86  
Year to date precipitation 23.90  
Snow  
Snow 0.00 in 0.10 in 0.40 in (1970)
Month to date snowfall 0.1  
Since 1 July snowfall 0.1  
Since 1 September snowfall 0.1  
Snow Depth -    
Sea Level Pressure  
Sea Level Pressure 29.99 in    
Wind  
Wind Speed 9 mph (SSE)    
Max Wind Speed 13 mph    
Max Gust Speed 21 mph    
Visibility 10 miles    
Events      
T = Trace of Precipitation, MM = Missing Value Source: NWS Daily Summary

Daily Weather History Graph

Daily Weather History Graph

Search for Another Location

Airport or City:

Trip Planner

Search our weather history database for the weather conditions in past years. The results will help you decide how hot, cold, wet, or windy it might be!

Date:

Astronomy

Oct. 09, 2013 Rise Set
Actual Time 7:23 AM CDT 6:40 PM CDT
Civil Twilight 6:54 AM CDT 7:09 PM CDT
Nautical Twilight 6:20 AM CDT 7:43 PM CDT
Astronomical Twilight 5:46 AM CDT 8:18 PM CDT
Moon 12:30 PM CDT (10/9) 10:04 PM CDT (10/9)
Length of Visible Light 12h 15m
Length of Day
11h 16m
Waxing Crescent, 25% of the Moon is Illuminated
Oct 9
Waxing Crescent
Oct 11
First Quarter
Oct 18
Full
Oct 26
Last Quarter
Nov 3
New

Hourly Weather History & Observations

Time (CDT) Temp. Dew Point Humidity Pressure Visibility Wind Dir Wind Speed Gust Speed Precip Events Conditions
12:16 AM 63.7 °F 45.0 °F 51% 29.91 in 10.0 mi South 10.4 mph 17.3 mph N/A   Clear
12:36 AM 63.7 °F 45.5 °F 52% 29.92 in 10.0 mi South 9.2 mph 20.7 mph N/A   Clear
12:56 AM 63.3 °F 45.3 °F 52% 29.92 in 10.0 mi South 12.7 mph 20.7 mph N/A   Clear
1:16 AM 62.8 °F 45.5 °F 53% 29.93 in 10.0 mi South 12.7 mph 18.4 mph N/A   Clear
1:36 AM 62.4 °F 45.5 °F 54% 29.94 in 10.0 mi South 11.5 mph 19.6 mph N/A   Clear
1:56 AM 62.1 °F 45.7 °F 55% 29.94 in 10.0 mi South 10.4 mph 16.1 mph N/A   Clear
2:16 AM 62.1 °F 46.0 °F 56% 29.95 in 10.0 mi South 9.2 mph - N/A   Clear
2:36 AM 61.7 °F 45.9 °F 56% 29.95 in 10.0 mi South 9.2 mph 16.1 mph N/A   Clear
2:56 AM 61.0 °F 45.5 °F 57% 29.95 in 10.0 mi South 10.4 mph 18.4 mph N/A   Clear
3:16 AM 60.8 °F 45.5 °F 57% 29.95 in 10.0 mi South 8.1 mph - N/A   Clear
3:36 AM 60.3 °F 45.5 °F 58% 29.95 in 10.0 mi South 9.2 mph - N/A   Clear
3:56 AM 60.3 °F 45.7 °F 59% 29.95 in 10.0 mi South 10.4 mph - N/A   Clear
4:16 AM 59.4 °F 45.7 °F 61% 29.96 in 10.0 mi South 11.5 mph 17.3 mph N/A   Clear
4:36 AM 59.4 °F 45.7 °F 61% 29.96 in 10.0 mi South 9.2 mph - N/A   Clear
4:56 AM 59.4 °F 45.7 °F 61% 29.96 in 10.0 mi South 8.1 mph - N/A   Clear
5:16 AM 59.2 °F 45.7 °F 61% 29.96 in 10.0 mi South 9.2 mph 18.4 mph N/A   Clear
5:36 AM 58.6 °F 45.5 °F 62% 29.97 in 10.0 mi South 10.4 mph 16.1 mph N/A   Clear
5:56 AM 58.3 °F 45.5 °F 62% 29.97 in 10.0 mi South 10.4 mph - N/A   Clear
6:16 AM 58.3 °F 45.7 °F 63% 29.98 in 10.0 mi South 6.9 mph - N/A   Clear
6:36 AM 58.1 °F 45.7 °F 63% 29.98 in 10.0 mi South 9.2 mph - N/A   Clear
6:56 AM 57.7 °F 45.9 °F 65% 29.98 in 10.0 mi South 6.9 mph - N/A   Clear
7:16 AM 57.6 °F 46.2 °F 66% 29.99 in 10.0 mi South 8.1 mph - N/A   Clear
7:36 AM 57.6 °F 46.4 °F 66% 29.99 in 10.0 mi South 8.1 mph 16.1 mph N/A   Clear
7:55 AM 57.2 °F 46.4 °F 67% 29.99 in 10.0 mi South 10.4 mph - N/A   Clear
8:16 AM 57.6 °F 46.6 °F 67% 30.00 in 10.0 mi South 9.2 mph - N/A   Clear
8:36 AM 57.4 °F 46.8 °F 68% 30.00 in 10.0 mi South 5.8 mph - N/A   Clear
8:56 AM 58.1 °F 47.3 °F 67% 30.01 in 10.0 mi South 8.1 mph - N/A   Clear
9:16 AM 59.2 °F 47.3 °F 65% 30.01 in 10.0 mi South 8.1 mph - N/A   Clear
9:36 AM 60.3 °F 47.5 °F 63% 30.01 in 10.0 mi South 9.2 mph 17.3 mph N/A   Clear
9:56 AM 62.1 °F 48.0 °F 60% 30.02 in 10.0 mi South 9.2 mph 17.3 mph N/A   Clear
10:16 AM 62.1 °F 47.8 °F 60% 30.02 in 10.0 mi South 10.4 mph 16.1 mph N/A   Clear
10:36 AM 62.6 °F 48.4 °F 60% 30.03 in 10.0 mi South 6.9 mph - N/A   Clear
11:16 AM 65.5 °F 48.4 °F 54% 30.03 in 10.0 mi South 8.1 mph - N/A   Clear
11:36 AM 66.6 °F 48.6 °F 52% 30.02 in 10.0 mi South 8.1 mph - N/A   Clear
11:56 AM 67.6 °F 48.6 °F 50% 30.02 in 10.0 mi South 6.9 mph - N/A   Clear
12:16 PM 68.2 °F 48.2 °F 49% 30.03 in 10.0 mi South 12.7 mph - N/A   Clear
12:36 PM 69.4 °F 48.4 °F 47% 30.03 in 10.0 mi South 9.2 mph - N/A   Clear
12:56 PM 70.0 °F 48.4 °F 46% 30.02 in 10.0 mi South 9.2 mph - N/A   Clear
1:16 PM 70.9 °F 48.6 °F 45% 30.02 in 10.0 mi South 9.2 mph - N/A   Clear
1:36 PM 72.0 °F 48.9 °F 44% 30.01 in 10.0 mi South 9.2 mph - N/A   Clear
1:56 PM 72.5 °F 48.7 °F 43% 30.01 in 10.0 mi South 10.4 mph 17.3 mph N/A   Clear
2:16 PM 72.7 °F 49.1 °F 43% 30.01 in 10.0 mi South 10.4 mph 16.1 mph N/A   Clear
2:36 PM 73.6 °F 48.9 °F 42% 30.01 in 10.0 mi SSE 10.4 mph - N/A   Clear
2:56 PM 73.9 °F 48.6 °F 41% 30.00 in 10.0 mi SSE 8.1 mph - N/A   Clear
3:16 PM 74.3 °F 47.5 °F 39% 30.00 in 10.0 mi South 10.4 mph 17.3 mph N/A   Clear
3:36 PM 74.8 °F 48.4 °F 39% 30.00 in 10.0 mi SSE 11.5 mph 17.3 mph N/A   Clear
3:56 PM 74.7 °F 47.7 °F 38% 30.00 in 10.0 mi SSE 10.4 mph 18.4 mph N/A   Clear
4:16 PM 75.4 °F 48.9 °F 39% 30.00 in 10.0 mi SSE 9.2 mph - N/A   Clear
4:36 PM 74.5 °F 47.7 °F 39% 30.00 in 10.0 mi SSE 12.7 mph 16.1 mph N/A   Clear
4:56 PM 74.3 °F 47.8 °F 39% 30.00 in 10.0 mi SSE 10.4 mph - N/A   Clear
5:16 PM 74.3 °F 48.6 °F 40% 29.99 in 10.0 mi SSE 8.1 mph - N/A   Clear
5:35 PM 73.0 °F 48.4 °F 42% 29.99 in 10.0 mi SE 9.2 mph - N/A   Clear
5:56 PM 72.5 °F 48.4 °F 42% 29.99 in 10.0 mi SE 8.1 mph - N/A   Clear
6:16 PM 70.2 °F 48.4 °F 46% 29.99 in 10.0 mi ESE 5.8 mph - N/A   Clear
6:36 PM 68.4 °F 48.2 °F 48% 29.99 in 10.0 mi SE 4.6 mph - N/A   Clear
6:56 PM 66.4 °F 48.2 °F 52% 29.99 in 10.0 mi ESE 3.5 mph - N/A   Clear
7:15 PM 65.5 °F 47.7 °F 53% 29.99 in 10.0 mi ESE 4.6 mph - N/A   Clear
7:36 PM 63.5 °F 48.2 °F 57% 30.00 in 10.0 mi ESE 3.5 mph - N/A   Clear
7:56 PM 63.7 °F 48.2 °F 57% 30.00 in 10.0 mi ESE 4.6 mph - N/A   Clear
8:15 PM 62.8 °F 48.4 °F 59% 30.00 in 10.0 mi SE 4.6 mph - N/A   Clear
8:36 PM 62.1 °F 48.2 °F 60% 30.01 in 10.0 mi ESE 4.6 mph - N/A   Clear
8:56 PM 62.2 °F 48.4 °F 60% 30.01 in 10.0 mi SE 4.6 mph - N/A   Clear
9:15 PM 61.3 °F 48.4 °F 62% 30.01 in 10.0 mi SE 4.6 mph - N/A   Clear
9:36 PM 60.8 °F 48.2 °F 63% 30.01 in 10.0 mi SE 5.8 mph - N/A   Clear
9:56 PM 60.3 °F 48.2 °F 64% 30.02 in 10.0 mi SE 4.6 mph - N/A   Clear
10:15 PM 60.3 °F 48.4 °F 65% 30.02 in 10.0 mi SE 4.6 mph - N/A   Clear
10:36 PM 60.1 °F 48.2 °F 65% 30.03 in 10.0 mi SE 4.6 mph - N/A   Clear
10:56 PM 59.9 °F 47.5 °F 64% 30.03 in 10.0 mi SE 4.6 mph - N/A   Clear
11:15 PM 60.3 °F 47.5 °F 63% 30.03 in 10.0 mi SE 5.8 mph - N/A   Clear
11:36 PM 60.3 °F 46.8 °F 61% 30.03 in 10.0 mi SE 4.6 mph - N/A   Clear
11:56 PM 59.4 °F 46.0 °F 61% 30.04 in 10.0 mi SE 3.5 mph - N/A   Clear